Tracking 20719 objects as of 26-May-2020
HD Live streaming from Space Station
objects crossing your sky now

MEV-1

Track MEV-1 now!


NORAD ID: 44625
Int'l Code: 2019-067B
Perigee: 35,855.1 km
Apogee: 35,863.7 km
Inclination: 0.2 °
Period: 1,439.5 minutes
Semi major axis: 42230 km
RCS: Unknown
Launch date: October 9, 2019
Source: United States (US)
Launch site: TYURATAM MISSILE AND SPACE COMPLEX (TTMTR)
aabbcc
Your satellite tracking list
Your tracking list is empty




NASA's NSSDC Master Catalog

Two Line Element Set (TLE):
1 44625U 19067B   20086.20000000 -.00000219  00000-0  00000+0 0  9999
2 44625   0.1660  93.4420 0001011  54.6820  83.3550  1.00038055 68782
Source of the keplerian elements: AFSPC